Burlington, WA
on Tuesday, November 20, 2012

Tuesday
Previous Day Next Day
Daily Summary
 ActualAverage (KBLI)Record (KBLI)
Temperature
Mean Temperature °F 42°F  
Max Temperature 51°F 49°F 62°F (2002)
Min Temperature 46°F 36°F 20°F (1977)
Degree Days
Heating Degree Days 16 23  
Month to date heating degree days 413  
Cooling Degree Days 0 0  
Month to date cooling degree days 0  
Year to date cooling degree days 42  
Moisture
Dew Point 46°F   
Average Humidity 89    
Maximum Humidity 100    
Minimum Humidity 82    
Precipitation
Precipitation 0.02 in 0.19 in 0.92 in (1998)
Month to date precipitation 3.94  
Year to date precipitation 29.75  
Wind
Wind Speed 10 mph   
Max Wind Speed 21 mph   
Max Gust Speed 29 mph   
Visibility 10 miles   
Events     

Key: T is trace of precipitation, MM is missing value
Source: NWS Daily Summary
Time(PST)TemperatureDew PointHumidity Pressure Visibility Wind DirectionWind SpeedGust SpeedPrecipitationEvents Conditions
12:15 AM 51.8°F 48.2°F 88% 29.67 in 10.0 miles SSE 9.2 mph - 0.00 in   Overcast
12:35 AM 51.8°F 48.2°F 88% 29.67 in 10.0 miles SSE 9.2 mph - 0.00 in   Overcast
4:15 AM 50.0°F 46.4°F 87% 29.67 in 10.0 miles SSE 4.6 mph - 0.00 in   Mostly Cloudy
4:35 AM 51.8°F 48.2°F 88% 29.66 in 10.0 miles SE 8.1 mph - 0.00 in   Overcast
4:55 AM 51.8°F 48.2°F 88% 29.66 in 10.0 miles SE 6.9 mph - 0.00 in   Mostly Cloudy
5:15 AM 51.8°F 48.2°F 88% 29.65 in 10.0 miles SE 9.2 mph - 0.00 in   Mostly Cloudy
5:35 AM 51.8°F 46.4°F 82% 29.65 in 10.0 miles ESE 6.9 mph - 0.00 in   Scattered Clouds
5:55 AM 51.8°F 46.4°F 82% 29.66 in 10.0 miles SE 11.5 mph 16.1 mph 0.00 in   Mostly Cloudy
6:15 AM 51.8°F 46.4°F 82% 29.66 in 10.0 miles SE 8.1 mph - 0.00 in   Overcast
6:35 AM 48.2°F 46.4°F 93% 29.64 in 10.0 miles East 9.2 mph - 0.00 in   Mostly Cloudy
6:55 AM 48.2°F 46.4°F 93% 29.63 in 10.0 miles East 9.2 mph - 0.00 in   Scattered Clouds
7:15 AM 48.2°F 46.4°F 93% 29.62 in 10.0 miles East 9.2 mph - 0.00 in   Mostly Cloudy
7:35 AM 48.2°F 46.4°F 93% 29.62 in 10.0 miles ENE 5.8 mph - 0.00 in   Overcast
7:55 AM 48.2°F 46.4°F 93% 29.61 in 9.0 miles East 5.8 mph - 0.00 in   Mostly Cloudy
8:15 AM 48.2°F 46.4°F 93% 29.60 in 9.0 miles East 9.2 mph - 0.00 in   Mostly Cloudy
8:35 AM 48.2°F 46.4°F 93% 29.59 in 10.0 miles ESE 9.2 mph - 0.00 in   Scattered Clouds
8:55 AM 50.0°F 46.4°F 87% 29.57 in 10.0 miles ENE 12.7 mph - 0.00 in   Mostly Cloudy
9:15 AM 48.2°F 46.4°F 93% 29.55 in 10.0 miles East 8.1 mph - 0.00 in   Partly Cloudy
9:35 AM 50.0°F 46.4°F 87% 29.54 in 10.0 miles East 8.1 mph - 0.00 in   Clear
10:55 AM 50.0°F 44.6°F 82% 29.51 in 10.0 miles East 11.5 mph - 0.00 in   Scattered Clouds
11:15 AM 48.2°F 44.6°F 87% 29.51 in 10.0 miles Calm Calm - 0.00 in   Scattered Clouds
12:15 PM 48.2°F 48.2°F 100% 29.51 in 5.0 miles SE 12.7 mph 18.4 mph 0.01 in   Overcast
12:35 PM 50.0°F 48.2°F 94% 29.52 in 7.0 miles SE 11.5 mph 18.4 mph 0.01 in   Overcast
12:55 PM 50.0°F 48.2°F 94% 29.51 in 5.0 miles ESE 11.5 mph 23.0 mph 0.01 in   Overcast
1:15 PM 50.0°F 46.4°F 87% 29.53 in 9.0 miles SE 11.5 mph 19.6 mph 0.00 in   Mostly Cloudy
1:35 PM 50.0°F 48.2°F 94% 29.53 in 10.0 miles SE 10.4 mph 19.6 mph 0.00 in   Overcast
1:55 PM 51.8°F 46.4°F 82% 29.53 in 9.0 miles SSE 15.0 mph 24.2 mph 0.00 in   Overcast
2:15 PM 50.0°F 48.2°F 94% 29.52 in 4.0 miles SE 16.1 mph 26.5 mph 0.01 in   Mostly Cloudy
2:35 PM 51.8°F 48.2°F 88% 29.54 in 10.0 miles South 12.7 mph 25.3 mph 0.01 in   Mostly Cloudy
2:55 PM 51.8°F 48.2°F 88% 29.54 in 10.0 miles SSE 15.0 mph 20.7 mph 0.01 in   Partly Cloudy
3:15 PM 51.8°F 48.2°F 88% 29.56 in 9.0 miles South 15.0 mph - 0.00 in   Scattered Clouds
3:35 PM 51.8°F 46.4°F 82% 29.58 in 10.0 miles South 12.7 mph 23.0 mph 0.00 in   Scattered Clouds
3:55 PM 51.8°F 46.4°F 82% 29.59 in 10.0 miles SSE 12.7 mph 25.3 mph 0.00 in   Partly Cloudy
4:15 PM 50.0°F 46.4°F 87% 29.60 in 10.0 miles SSE 15.0 mph 26.5 mph 0.00 in   Scattered Clouds
4:35 PM 50.0°F 46.4°F 87% 29.61 in 10.0 miles SSE 12.7 mph 23.0 mph 0.00 in   Mostly Cloudy
4:55 PM 50.0°F 46.4°F 87% 29.60 in 10.0 miles SSE 13.8 mph 25.3 mph 0.00 in   Mostly Cloudy
5:15 PM 48.2°F 44.6°F 87% 29.60 in 10.0 miles SSE 13.8 mph 23.0 mph 0.00 in   Mostly Cloudy
5:35 PM 48.2°F 44.6°F 87% 29.60 in 10.0 miles SSE 12.7 mph 18.4 mph 0.00 in   Scattered Clouds
5:55 PM 50.0°F 44.6°F 82% 29.61 in 10.0 miles SSE 15.0 mph 24.2 mph 0.00 in   Partly Cloudy
6:15 PM 50.0°F 44.6°F 82% 29.61 in 10.0 miles SSE 16.1 mph 27.6 mph 0.00 in   Scattered Clouds
6:35 PM 50.0°F 44.6°F 82% 29.62 in 8.0 miles SSE 20.7 mph 28.8 mph 0.00 in   Mostly Cloudy
6:55 PM 48.2°F 44.6°F 87% 29.63 in 10.0 miles South 10.4 mph 19.6 mph 0.00 in   Mostly Cloudy
7:15 PM 48.2°F 44.6°F 87% 29.64 in 10.0 miles SSE 11.5 mph 19.6 mph 0.00 in   Mostly Cloudy
7:35 PM 48.2°F 46.4°F 93% 29.63 in 9.0 miles SSE 8.1 mph - 0.00 in   Overcast
7:55 PM 46.4°F 44.6°F 93% 29.62 in 10.0 miles South 9.2 mph 17.3 mph 0.00 in   Scattered Clouds
8:15 PM 46.4°F 44.6°F 93% 29.63 in 10.0 miles SSE 8.1 mph - 0.00 in   Partly Cloudy
8:35 PM 46.4°F 44.6°F 93% 29.64 in 10.0 miles South 6.9 mph - 0.00 in   Scattered Clouds
8:55 PM 46.4°F 44.6°F 93% 29.64 in 10.0 miles South 9.2 mph - 0.00 in   Partly Cloudy
9:15 PM 46.4°F 44.6°F 93% 29.64 in 10.0 miles SSE 6.9 mph 17.3 mph 0.00 in   Clear
9:35 PM 46.4°F 42.8°F 87% 29.64 in 10.0 miles SSE 10.4 mph 18.4 mph 0.00 in   Clear
9:55 PM 46.4°F 42.8°F 87% 29.64 in 10.0 miles SSE 11.5 mph 19.6 mph 0.00 in   Clear
10:15 PM 46.4°F 42.8°F 87% 29.64 in 10.0 miles SSE 9.2 mph - 0.00 in   Scattered Clouds
10:35 PM 48.2°F 44.6°F 87% 29.64 in 10.0 miles SE 10.4 mph 16.1 mph 0.00 in   Scattered Clouds
11:15 PM 46.4°F 44.6°F 93% 29.62 in 10.0 miles East 4.6 mph - 0.00 in   Mostly Cloudy
11:35 PM 46.4°F 44.6°F 93% 29.62 in 10.0 miles East 6.9 mph - 0.00 in   Overcast
11:55 PM 46.4°F 44.6°F 93% 29.60 in 10.0 miles NE 8.1 mph - 0.00 in   Overcast
Moon Phase
Nov. 20 Nov. 28 Dec. 06 Dec. 13 Dec. 20
Sunrise:07:25 AM (PST) Moon Rise:12:45 PM (PST)11/20
Sunset:04:24 PM (PST) Moon Set:No Moon Set/

Copyright © 2014 The Weather Underground, Inc.